Location: Boiro
(42.6475°N, 8.8834°W)
Time: 01:13:45
(UTC+01:00)

Transit 2A Rocket - Pass Details

Date: 02 December 2021
Orbit: 584 x 917 km, 66.7° (Epoch: 23 January)

Event Time Altitude Azimuth Distance (km) Brightness Sun altitude
Rises 08:43:35 0° 183° (S) 3,254 8.6 -1.4°
Reaches altitude 10° 08:46:04 10° 175° (S) 2,382 8.1 -1.0°
Maximum altitude 08:51:05 36° 110° (ESE) 1,319 7.2 -0.2°
Drops below altitude 10° 08:56:28 10° 46° (NE) 2,563 7.9 0.6°
Sets 08:59:13 0° 38° (NE) 3,535 8.5 1.1°
